Flag for Canada Weather past 2 weeks in Sherbrooke, Quebec, Canada

Now
57 °F

Light rain. Low clouds.


Feels Like: 54 °F
Forecast: 42 / 62 °F
Wind: 13 mph from West

Location: Sherbrooke

Current Time: Sep 22, 2014 at 6:37:29 AM

Latest Report: Sep 22, 2014 at 6:00 AM


Visibility: 8 mi

Pressure: 29.51 "Hg

Humidity: 94%

Dew point: 55 °F

Location of SherbrookeLocation

Historic Weather in Sherbrooke — Graph

°F

Sherbrooke temperature yesterday

Maximum temperature yesterday: 79 °F (at 2:00 PM)
Minimum temperature yesterday: 61 °F (at 7:00 AM)
Average temperature yesterday: 69 °F

Past Weeks' High & Low Weather Summary

 TemperatureHumidityPressure
High79 °F (Sep 21, 2:00 PM)100% (Sep 7, 6:00 AM)30.43 "Hg (Sep 7, 6:00 AM)
Low27 °F (Sep 19, 5:00 AM)24% (Sep 19, 4:00 PM)29.47 "Hg (Sep 22, 3:00 AM)
Average52 °F80%30.08 "Hg
* Reported Sep 7 5:00 AM — Sep 22 5:00 AM, Sherbrooke, Weather by CustomWeather, © 2014

Note: Actual official high and low records may vary slightly from our data, if they occured in-between our weather recording intervals... More about our weather records

Advertising

Sherbrooke weather history for previous 24 hours

 ConditionsComfort  
Time TempWeatherWind HumidityBarometerVisibility
5:00 AM
Sep 22
61 °FMostly cloudy.6 mph94%29.48 "Hg9 mi
4:00 AM61 °FLight rain. Overcast.6 mph94%29.47 "Hg8 mi
3:00 AM63 °FLight rain. Mostly cloudy.7 mph94%29.47 "Hg8 mi
2:52 AM63 °FLight rain. Fog.7 mph94%29.48 "Hg6 mi
2:00 AM63 °FLight rain. Mostly cloudy.6 mph94%29.49 "Hg8 mi
1:49 AM63 °FLight rain. Fog.6 mph94%29.49 "Hg6 mi
1:03 AM63 °FLight rain. Overcast.6 mph94%29.50 "Hg9 mi
1:00 AM63 °FLight rain. Mostly cloudy.7 mph94%29.50 "Hg7 mi
12:58 AM63 °FLight rain. Fog.6 mph100%29.50 "Hg6 mi
12:03 AM66 °FThundershowers. Overcast.6 mph88%29.48 "Hg9 mi
11:00 PM
Sep 21
68 °FLight rain. Mostly cloudy.2 mph83%29.52 "Hg9 mi
10:57 PM68 °FLight rain. Mostly cloudy.3 mph83%29.52 "Hg9 mi
10:00 PM68 °FOvercast.No wind78%29.55 "Hg9 mi
9:00 PM70 °FOvercast.5 mph78%29.57 "Hg9 mi
8:00 PM72 °FMostly cloudy.8 mph69%29.58 "Hg9 mi
7:00 PM72 °FMostly cloudy.7 mph69%29.59 "Hg9 mi
6:00 PM73 °FMostly cloudy.7 mph61%29.59 "Hg9 mi
5:00 PM75 °FScattered clouds.10 mph57%29.61 "Hg9 mi
4:00 PM75 °FScattered clouds.8 mph54%29.62 "Hg9 mi
3:00 PM79 °FSunny.13 mph48%29.63 "Hg9 mi
2:00 PM79 °FPartly sunny.13 mph48%29.67 "Hg9 mi
1:00 PM77 °FSunny.14 mph57%29.70 "Hg9 mi
12:00 PM75 °FPassing clouds.16 mph57%29.73 "Hg9 mi
11:00 AM72 °FPartly sunny.14 mph61%29.77 "Hg9 mi
10:00 AM70 °FScattered clouds.16 mph64%29.79 "Hg9 mi
9:00 AM66 °FSunny.9 mph68%29.80 "Hg9 mi
8:00 AM64 °FSunny.12 mph68%29.80 "Hg9 mi
7:00 AM61 °FClear.10 mph72%29.80 "Hg9 mi
6:00 AM63 °FClear.12 mph73%29.80 "Hg9 mi
Weather by CustomWeather, © 2014

See weather overviewHow to use our weather pages